West Vancouver, British Columbia

5:43 AM PDT on March 24, 2017 (GMT -0700)
West Vancouver

Weather History for CWWA - October, 2012

Change the Weather History Date:

Friday, October 12, 2012

  Actual Average Record
Temperature  
Mean Temperature 50 °F -  
Max Temperature 52 °F - - ()
Min Temperature 47 °F - - ()
Degree Days  
Heating Degree Days 16    
Moisture  
Dew Point 48 °F    
Average Humidity 93    
Maximum Humidity 95    
Minimum Humidity 89    
Precipitation  
Precipitation 0.31 in - - ()
Sea Level Pressure  
Sea Level Pressure 29.87 in    
Wind  
Wind Speed 3 mph ()    
Max Wind Speed 7 mph    
Max Gust Speed -    
T = Trace of Precipitation, MM = Missing Value Source: Averaged Metar Reports

Daily Weather History Graph

Daily Weather History Graph

Search for Another Location

Airport or City:

Trip Planner

Search our weather history database for the weather conditions in past years. The results will help you decide how hot, cold, wet, or windy it might be!

Date:

Astronomy

Oct. 12, 2012 Rise Set
Actual Time 7:30 AM PDT 6:27 PM PDT
Civil Twilight 6:57 AM PDT 6:59 PM PDT
Nautical Twilight 6:21 AM PDT 7:35 PM PDT
Astronomical Twilight 5:43 AM PDT 8:12 PM PDT
Moon 4:04 AM PDT (10/12) 4:50 PM PDT (10/12)
Length of Visible Light 12h 01m
Length of Day
10h 57m
Waning Crescent, 10% of the Moon is Illuminated
Oct 12
Waning Crescent
Oct 15
New
Oct 21
First Quarter
Oct 29
Full
Nov 6
Last Quarter

Hourly Weather History & Observations

Time (PDT) Temp. Dew Point Humidity Pressure Visibility Wind Dir Wind Speed Gust Speed Precip Events Conditions
12:00 AM 48.6 °F 46.4 °F 92% 29.80 in - SE 1.2 mph - N/A   Unknown
1:00 AM 48.4 °F 46.4 °F 93% 29.80 in - Calm Calm - N/A   Unknown
2:00 AM 48.6 °F 46.9 °F 94% 29.80 in - East 3.5 mph - N/A   Unknown
3:00 AM 48.6 °F 46.6 °F 93% 29.81 in - East 1.2 mph - N/A   Unknown
4:00 AM 48.0 °F 46.6 °F 95% 29.81 in - East 1.2 mph - N/A   Unknown
5:00 AM 48 °F 47 °F 93% 29.81 in - South 1.2 mph - -  
5:00 AM 48.4 °F 46.6 °F 93% 29.81 in - South 1.2 mph - N/A   Unknown
6:00 AM 47.5 °F 46.0 °F 95% 29.84 in - East 4.6 mph - 0.04 in   Unknown
7:00 AM 47.8 °F 45.9 °F 93% 29.83 in - East 6.9 mph - 0.06 in   Unknown
8:00 AM 47.8 °F 45.9 °F 93% 29.85 in - East 6.9 mph - 0.04 in   Unknown
9:00 AM 48.0 °F 46.4 °F 94% 29.86 in - East 4.6 mph - 0.05 in   Unknown
10:00 AM 48.2 °F 46.4 °F 93% 29.88 in - East 4.6 mph - 0.01 in   Unknown
11:00 AM 49 °F 47 °F 91% 29.89 in - East 3.5 mph - -  
11:00 AM 48.7 °F 47.1 °F 94% 29.89 in - East 3.5 mph - 0.02 in   Unknown
12:00 PM 49.5 °F 47.5 °F 93% 29.90 in - East 4.6 mph - 0.02 in   Unknown
1:00 PM 50.4 °F 48.2 °F 92% 29.89 in - East 4.6 mph - 0.02 in   Unknown
2:00 PM 50.7 °F 48.2 °F 91% 29.89 in - East 5.8 mph - N/A   Unknown
3:00 PM 51.1 °F 48.6 °F 91% 29.89 in - ENE 3.5 mph - N/A   Unknown
4:00 PM 51.6 °F 48.6 °F 89% 29.88 in - ENE 4.6 mph - N/A   Unknown
5:00 PM 51 °F 49 °F 91% 29.88 in - East 4.6 mph - -  
5:00 PM 51.4 °F 49.1 °F 92% 29.88 in - East 4.6 mph - N/A   Unknown
6:00 PM 51.6 °F 49.5 °F 92% 29.90 in - ENE 4.6 mph - 0.02 in   Unknown
7:00 PM 51.4 °F 49.6 °F 94% 29.89 in - East 4.6 mph - 0.11 in   Unknown
8:00 PM 51.6 °F 49.6 °F 93% 29.90 in - East 4.6 mph - 0.02 in   Unknown
9:00 PM 51.8 °F 50.0 °F 94% 29.91 in - East 4.6 mph - 0.07 in   Unknown
10:00 PM 52.0 °F 50.4 °F 94% 29.92 in - ENE 3.5 mph - 0.06 in   Unknown
11:00 PM 52 °F 50 °F 92% 29.93 in - ENE 3.5 mph - -  
11:00 PM 52.0 °F 50.4 °F 94% 29.93 in - ENE 3.5 mph - 0.04 in   Unknown